Weather History for KCSV - May, 2014

Change the Weather History Date:

Friday, May 16, 2014

  Actual Average Record
Temperature  
Mean Temperature 50 °F 64 °F  
Max Temperature 58 °F 74 °F 88 °F (1962)
Min Temperature 41 °F 53 °F 33 °F (1997)
Degree Days  
Heating Degree Days 15    
Month to date heating degree days 63  
Since 1 July heating degree days 4457  
Cooling Degree Days 0    
Month to date cooling degree days 48  
Year to date cooling degree days 59  
Moisture  
Dew Point 38 °F    
Average Humidity 63    
Maximum Humidity 89    
Minimum Humidity 36    
Precipitation  
Precipitation 0.01 in 0.18 in 1.26 in (1991)
Month to date precipitation 0.81 2.85  
Year to date precipitation 15.46 21.87  
Sea Level Pressure  
Sea Level Pressure 30.08 in    
Wind  
Wind Speed 7 mph (West)    
Max Wind Speed 22 mph    
Max Gust Speed 30 mph    
Visibility 9 miles    
Events Rain    
T = Trace of Precipitation, MM = Missing Value Source: NWS Daily Summary

Daily Weather History Graph

Daily Weather History Graph

Search for Another Location

Airport or City:

Trip Planner

Search our weather history database for the weather conditions in past years. The results will help you decide how hot, cold, wet, or windy it might be!

Date:

Astronomy

May. 16, 2014 Rise Set
Actual Time 5:33 AM CDT 7:39 PM CDT
Civil Twilight 5:05 AM CDT 8:08 PM CDT
Nautical Twilight 4:30 AM CDT 8:43 PM CDT
Astronomical Twilight 3:52 AM CDT 9:21 PM CDT
Moon 9:46 PM CDT (5/16) 7:14 AM CDT (5/16)
Length of Visible Light 15h 03m
Length of Day
14h 06m
Waning Gibbous, 95% of the Moon is Illuminated
May 16
Waning Gibbous
May 21
Last Quarter
May 28
New
Jun 5
First Quarter
Jun 12
Full

Hourly Weather History & Observations

Time (CDT) Temp. Windchill Dew Point Humidity Pressure Visibility Wind Dir Wind Speed Gust Speed Precip Events Conditions
12:08 AM 42.1 °F - 39.0 °F 89% 30.09 in 6.0 mi Calm Calm - N/A   Clear
12:35 AM 42.1 °F - 39.0 °F 89% 30.08 in 2.0 mi Calm Calm - N/A   Clear
12:44 AM 42.1 °F - 39.0 °F 89% 30.08 in 7.0 mi Calm Calm - N/A   Clear
1:53 AM 41.0 °F - 37.0 °F 86% 30.07 in 5.0 mi Calm Calm - N/A   Clear
3:53 AM 42.1 °F - 39.0 °F 89% 30.03 in 5.0 mi Calm Calm - N/A   Partly Cloudy
4:53 AM 42.1 °F - 39.0 °F 89% 30.01 in 8.0 mi Calm Calm - N/A   Clear
5:53 AM 43.0 °F 40.3 °F 39.0 °F 86% 30.04 in 7.0 mi WSW 4.6 mph - N/A   Mostly Cloudy
6:53 AM 45.0 °F 41.2 °F 41.0 °F 86% 30.05 in 10.0 mi West 6.9 mph - N/A   Overcast
7:53 AM 46.9 °F - 42.1 °F 83% 30.06 in 10.0 mi West 8.1 mph - N/A   Overcast
8:53 AM 46.9 °F - 42.1 °F 83% 30.07 in 5.0 mi West 8.1 mph - 0.00 in Rain Light Rain
9:53 AM 51.1 °F - 43.0 °F 74% 30.06 in 10.0 mi West 10.4 mph 18.4 mph 0.01 in   Scattered Clouds
10:39 AM 52.0 °F - 44.1 °F 74% 30.07 in 10.0 mi West 15.0 mph 21.9 mph N/A   Mostly Cloudy
10:53 AM 51.1 °F - 43.0 °F 74% 30.07 in 10.0 mi West 12.7 mph 19.6 mph N/A   Overcast
11:29 AM 53.1 °F - 43.0 °F 69% 30.07 in 10.0 mi West 16.1 mph - N/A   Mostly Cloudy
11:53 AM 54.0 °F - 43.0 °F 66% 30.06 in 10.0 mi West 11.5 mph - N/A   Scattered Clouds
12:53 PM 55.0 °F - 39.0 °F 55% 30.05 in 10.0 mi West 17.3 mph 23.0 mph N/A   Mostly Cloudy
1:53 PM 55.9 °F - 34.0 °F 44% 30.05 in 10.0 mi West 18.4 mph 26.5 mph N/A   Partly Cloudy
3:53 PM 57.0 °F - 30.0 °F 36% 30.06 in 10.0 mi West 18.4 mph 24.2 mph N/A   Scattered Clouds
4:53 PM 54.0 °F - 30.9 °F 41% 30.08 in 10.0 mi West 13.8 mph - N/A   Mostly Cloudy
5:53 PM 54.0 °F - 32.0 °F 43% 30.09 in 10.0 mi West 15.0 mph - N/A   Mostly Cloudy
6:53 PM 53.1 °F - 33.1 °F 47% 30.09 in 10.0 mi West 12.7 mph 18.4 mph N/A   Clear
7:53 PM 48.0 °F - 36.0 °F 63% 30.11 in 10.0 mi WSW 3.5 mph - N/A   Clear
8:53 PM 44.1 °F - 37.9 °F 79% 30.12 in 10.0 mi Calm Calm - N/A   Clear
9:53 PM 43.0 °F - 37.9 °F 82% 30.14 in 10.0 mi Calm Calm - N/A   Partly Cloudy
10:53 PM 43.0 °F - 37.9 °F 82% 30.13 in 10.0 mi Calm Calm - N/A   Clear
11:53 PM 43.0 °F - 39.0 °F 86% 30.12 in 10.0 mi Calm Calm - N/A   Scattered Clouds